EW6300 Weather Reports


time (UTC)temp
C
wind
direction
speed
KPH
gust
KPH
rain 1hr
cm
rain 24hr
cm
rain mn
cm
humidity
%
barometer
mb
20260508084555 1 332 0.0 0.0 0.00 0.53 0.00 82 1014.1
20260508084541 0 0 0.0 0.0 0.00 0.00 0.00 82 1020.7
20260508083108 1 332 0.0 0.0 0.00 0.53 0.00 82 1014.3
20260508083046 0 0 0.0 0.0 0.00 0.00 0.00 83 1020.8
20260508081558 0 332 0.0 0.0 0.00 0.53 0.00 82 1014.3
20260508081541 0 0 0.0 0.0 0.00 0.00 0.00 85 1020.9
20260508080046 0 0 0.0 0.0 0.00 0.00 0.00 82 1021.0
20260508074549 1 332 0.0 0.0 0.00 0.53 0.00 80 1014.5
20260508074544 0 0 0.0 0.0 0.00 0.00 0.00 84 1021.0
20260508073047 1 332 0.0 0.0 0.00 0.53 0.00 77 1014.8
20260508073043 0 0 0.0 0.0 0.00 0.00 0.00 81 1021.0
20260508071544 1 332 0.0 0.0 0.00 0.53 0.00 78 1015.0
20260508071541 0 0 0.0 0.0 0.00 0.00 0.00 81 1021.3
20260508070124 2 332 0.0 0.0 0.00 0.53 0.00 76 1015.2
20260508070036 1 0 0.0 0.0 0.00 0.00 0.00 79 1021.3
20260508064551 1 0 0.0 0.0 0.00 0.00 0.00 79 1021.3
20260508064540 2 332 0.0 0.0 0.00 0.53 0.00 76 1015.3
20260508063041 1 0 0.0 4.8 0.00 0.00 0.00 80 1021.3
20260508063038 2 332 0.0 0.0 0.00 0.53 0.00 76 1015.4
20260508061539 2 332 0.0 0.0 0.00 0.53 0.00 74 1015.2
20260508060036 1 0 0.0 0.0 0.00 0.00 0.00 78 1021.0
20260508060034 2 332 0.0 0.0 0.00 0.53 0.00 74 1015.2
20260508054536 1 0 0.0 0.0 0.00 0.00 0.00 76 1021.3
20260508054533 2 332 0.0 0.0 0.00 0.53 0.53 73 1015.5
20260508053045 2 0 0.0 0.0 0.00 0.00 0.00 75 1021.0
20260508053035 2 332 0.0 0.0 0.00 0.53 0.53 71 1015.4
20260508051550 2 0 0.0 0.0 0.00 0.00 0.00 72 1021.3
20260508051532 3 332 0.0 0.0 0.00 0.53 0.53 69 1015.7
20260508050037 2 0 0.0 0.0 0.00 0.00 0.00 73 1021.2
20260508050031 3 332 0.0 0.0 0.00 0.53 0.53 67 1015.8
20260508044537 3 0 0.0 0.0 0.00 0.00 0.00 69 1021.2
20260508044530 4 332 0.0 0.0 0.00 0.53 0.53 66 1015.8
20260508043049 4 332 0.0 0.0 0.00 0.53 0.53 63 1015.7
20260508043036 3 0 0.0 0.0 0.00 0.00 0.00 67 1021.0
20260508041542 4 0 0.0 0.0 0.00 0.00 0.00 61 1021.2
20260508041530 5 332 0.0 0.0 0.00 0.53 0.53 62 1016.0
20260508040042 5 0 0.0 0.0 0.00 0.00 0.00 57 1021.2
20260508040031 6 332 0.0 0.0 0.00 0.53 0.53 60 1016.2
20260508034541 5 0 0.0 0.0 0.00 0.00 0.00 60 1021.3
20260508034529 6 332 0.0 0.0 0.00 0.53 0.53 60 1016.3
20260508033042 5 0 0.0 3.2 0.00 0.00 0.00 59 1021.1
20260508033031 6 332 0.0 0.0 0.00 0.53 0.53 59 1016.4
20260508031537 4 0 0.0 0.0 0.00 0.00 0.00 63 1020.9
20260508031528 6 332 0.0 0.0 0.00 0.53 0.53 58 1016.2
20260508030045 4 0 0.0 1.6 0.00 0.00 0.00 64 1020.6
20260508030041 6 332 0.0 0.0 0.00 0.53 0.53 54 1016.0
20260508024546 5 0 0.0 0.0 0.00 0.00 0.00 60 1020.6
20260508024532 6 332 0.0 0.0 0.00 0.53 0.53 53 1015.9
20260508023041 5 0 0.0 0.0 0.00 0.00 0.00 56 1020.5
20260508023025 6 333 0.0 0.0 0.00 0.53 0.53 50 1015.8
20260508021545 6 0 0.0 0.0 0.00 0.00 0.00 55 1020.3
20260508021527 7 336 0.0 0.0 0.00 0.53 0.53 45 1015.7
20260508020040 7 0 0.0 0.0 0.00 0.00 0.00 48 1020.1
20260508020025 8 336 3.2 14.5 0.00 0.53 0.53 43 1015.6
20260508014548 7 0 0.0 1.6 0.00 0.00 0.00 43 1020.0
20260508014525 8 311 0.0 1.6 0.00 0.56 0.53 43 1015.5
20260508013044 8 0 0.0 0.0 0.00 0.00 0.00 44 1020.0
20260508013024 8 310 0.0 1.6 0.00 0.56 0.53 40 1015.4
20260508011545 10 0 0.0 0.0 0.00 0.00 0.00 38 1019.9
20260508011523 10 313 0.0 1.6 0.00 0.56 0.53 39 1015.6
20260508010043 11 0 0.0 9.7 0.00 0.00 0.00 34 1020.0
20260508010025 11 360 0.0 1.6 0.00 0.56 0.53 37 1015.8
20260508004542 11 293 6.4 14.5 0.00 0.00 0.00 32 1020.2
20260508004519 12 5 0.0 9.7 0.00 0.56 0.53 30 1016.0
20260508003057 11 276 6.4 25.7 0.00 0.00 0.00 29 1020.0
20260508003018 13 128 0.0 16.1 0.00 0.56 0.53 27 1016.3
20260508001543 12 304 6.4 17.7 0.00 0.00 0.00 28 1019.9
20260508001518 14 322 1.6 20.9 0.00 0.56 0.53 26 1016.2
20260508000042 13 314 12.9 17.7 0.00 0.00 0.00 29 1020.0
20260508000015 13 14 1.6 4.8 0.00 0.58 0.53 29 1016.6
20260507234542 13 304 12.9 20.9 0.00 0.00 0.00 31 1020.0
20260507234514 13 277 9.7 19.3 0.00 0.58 0.53 26 1016.7
20260507233041 13 292 6.4 16.1 0.00 0.00 0.00 30 1020.0
20260507233013 14 355 1.6 16.1 0.00 0.58 0.53 26 1016.6
20260507231541 12 0 8.0 22.5 0.00 0.00 0.00 29 1020.1
20260507231517 13 55 8.0 16.1 0.00 0.58 0.53 29 1016.9
20260507230042 13 336 9.7 19.3 0.00 0.00 0.00 26 1020.2
20260507230013 13 296 0.0 12.9 0.00 0.61 0.53 27 1016.9
20260507224558 13 328 14.5 27.4 0.00 0.00 0.00 27 1020.1
20260507224511 13 42 0.0 3.2 0.00 0.61 0.53 30 1017.0
20260507223039 13 291 11.3 24.1 0.00 0.00 0.00 30 1020.2
20260507223009 12 248 8.0 17.7 0.00 0.61 0.53 27 1017.2
20260507221543 13 239 6.4 30.6 0.00 0.00 0.00 27 1020.3
20260507221509 13 84 0.0 6.4 0.00 0.61 0.53 27 1017.4
20260507220040 13 288 14.5 27.4 0.00 0.00 0.00 27 1020.3
20260507220007 14 360 1.6 19.3 0.00 0.64 0.53 27 1017.5
20260507214537 13 240 8.0 17.7 0.00 0.00 0.00 27 1020.3
20260507214506 13 290 3.2 11.3 0.00 0.64 0.53 26 1017.8
20260507213040 13 139 9.7 30.6 0.00 0.00 0.00 28 1020.4
20260507213004 14 71 0.0 17.7 0.00 0.64 0.53 29 1018.1
20260507211549 13 291 8.0 20.9 0.00 0.00 0.00 26 1020.5
20260507211501 13 15 3.2 19.3 0.00 0.64 0.53 28 1018.4
20260507210100 14 327 1.6 19.3 0.00 0.64 0.53 27 1018.7
20260507210042 13 305 6.4 17.7 0.00 0.00 0.00 29 1020.6
20260507204602 13 44 4.8 16.1 0.00 0.69 0.53 29 1019.1
20260507204543 13 304 9.7 29.0 0.00 0.08 0.00 26 1020.8
20260507203056 14 228 0.0 11.3 0.00 0.69 0.53 24 1019.1
20260507203042 13 292 8.0 24.1 0.00 0.08 0.00 30 1020.8
20260507201602 12 313 0.0 16.1 0.00 0.69 0.53 28 1019.4
20260507201540 12 313 9.7 24.1 0.00 0.08 0.00 29 1020.8
20260507200056 12 286 9.7 24.1 0.03 0.69 0.53 26 1019.6
20260507200038 12 285 11.3 27.4 0.00 0.08 0.00 27 1021.0
20260507194558 12 24 3.2 17.7 0.05 0.71 0.53 31 1019.7
20260507194539 12 300 14.5 30.6 0.00 0.48 0.00 30 1020.9
20260507193048 13 355 3.2 12.9 0.08 0.71 0.53 31 1019.9
20260507193036 12 304 11.3 29.0 0.00 0.48 0.00 31 1021.0
20260507191603 12 11 1.6 11.3 0.10 0.71 0.53 31 1020.3
20260507191548 12 328 4.8 14.5 0.00 0.48 0.00 30 1021.5
20260507190041 11 105 0.0 14.5 0.10 0.71 0.51 34 1020.6
20260507184544 11 71 0.0 4.8 0.13 0.71 0.48 37 1020.8
20260507184540 11 224 3.2 16.1 0.00 0.61 0.00 29 1021.7
20260507183042 10 5 1.6 6.4 0.13 0.69 0.46 35 1021.3
20260507183036 11 358 3.2 9.7 0.00 0.61 0.00 27 1021.9
20260507181537 10 293 3.2 17.7 0.00 0.61 0.00 29 1022.0
20260507181530 10 22 0.0 6.4 0.15 0.66 0.43 36 1021.4
20260507180043 10 314 4.8 14.5 0.00 0.61 0.00 33 1022.3
20260507180026 10 331 1.6 11.3 0.15 0.64 0.41 35 1022.0
20260507174542 10 307 4.8 14.5 0.00 0.61 0.00 34 1022.3
20260507174530 9 355 0.0 4.8 0.15 0.58 0.36 42 1022.2
20260507173037 9 312 3.2 11.3 0.00 0.61 0.00 36 1022.5
20260507173018 8 115 0.0 4.8 0.15 0.56 0.33 38 1022.5
20260507171537 8 295 8.0 14.5 0.00 0.61 0.00 36 1022.7
20260507171525 8 341 1.6 8.0 0.15 0.51 0.28 36 1022.9
20260507170037 8 319 8.0 19.3 0.00 0.61 0.00 35 1022.9
20260507170010 8 360 1.6 11.3 0.15 0.51 0.25 39 1023.2
20260507164537 7 304 4.8 12.9 0.00 0.61 0.00 37 1022.9
20260507164508 7 338 0.0 3.2 0.15 0.46 0.20 38 1023.4
20260507163042 6 287 4.8 11.3 0.00 0.61 0.00 38 1023.1
20260507163001 6 360 0.0 4.8 0.13 0.41 0.15 41 1023.7
20260507161606 5 173 0.0 3.2 0.10 0.38 0.13 39 1024.0
20260507161541 6 293 4.8 9.7 0.00 0.61 0.00 39 1023.4
20260507160054 5 142 0.0 0.0 0.10 0.36 0.10 38 1024.3
20260507160041 5 300 4.8 8.0 0.00 0.61 0.00 41 1023.5
20260507154550 4 140 0.0 0.0 0.05 0.30 0.05 41 1024.5
20260507154540 4 302 4.8 8.0 0.00 0.61 0.00 36 1023.7
20260507153044 3 140 0.0 0.0 0.03 0.28 0.03 37 1024.9
20260507153037 3 0 0.0 3.2 0.00 0.61 0.00 33 1024.0
20260507151541 2 140 0.0 0.0 0.03 0.28 0.03 38 1024.9
20260507151537 2 0 0.0 4.8 0.00 0.61 0.00 34 1024.2
20260507150041 1 0 3.2 6.4 0.00 0.61 0.00 38 1024.2
20260507150038 1 159 0.0 4.8 0.00 0.25 0.00 39 1024.9
20260507144541 0 140 3.2 6.4 0.00 0.61 0.00 43 1024.4
20260507144533 1 177 0.0 3.2 0.00 0.28 0.00 44 1025.0
20260507143052 0 180 1.6 6.4 0.00 0.28 0.00 41 1025.1
20260507143040 -2 127 3.2 9.7 0.00 0.61 0.00 49 1024.5
20260507141537 -3 176 4.8 8.0 0.00 0.61 0.00 57 1024.5
20260507141528 -1 200 0.0 4.8 0.00 0.28 0.00 48 1025.2
20260507140047 -5 110 1.6 8.0 0.00 0.61 0.00 64 1024.6
20260507140020 -2 216 1.6 9.7 0.00 0.28 0.00 51 1025.3
20260507134537 -6 118 3.2 6.4 0.00 0.61 0.00 72 1024.7
20260507134517 -2 163 3.2 11.3 0.00 0.28 0.00 54 1025.3
20260507133035 -6 125 1.6 3.2 0.00 0.61 0.00 79 1024.8
20260507133012 -3 166 0.0 3.2 0.00 0.28 0.00 63 1025.4
20260507131544 -7 143 0.0 1.6 0.00 0.61 0.00 83 1024.7
20260507131511 -5 190 0.0 1.6 0.00 0.28 0.00 60 1025.4
20260507130038 -7 0 0.0 3.2 0.00 0.61 0.00 84 1024.6
20260507130017 -5 246 1.6 11.3 0.00 0.28 0.00 62 1025.3
20260507124540 -7 0 0.0 3.2 0.00 0.61 0.00 86 1024.4
20260507124504 -5 246 0.0 11.3 0.00 0.28 0.00 63 1024.9
20260507123036 -8 0 0.0 0.0 0.00 0.61 0.00 86 1024.5
20260507123002 -5 226 1.6 14.5 0.00 0.28 0.00 61 1024.9
20260507121536 -8 0 0.0 0.0 0.00 0.61 0.00 86 1024.4
20260507121502 -5 236 0.0 12.9 0.00 0.28 0.00 61 1024.7
20260507120100 -5 223 0.0 9.7 0.00 0.28 0.00 63 1024.7
20260507120042 -8 0 0.0 0.0 0.00 0.61 0.00 87 1024.4
20260507114600 -5 202 1.6 11.3 0.00 0.28 0.00 63 1024.7
20260507114542 -8 0 0.0 0.0 0.00 0.61 0.00 87 1024.5
20260507113058 -5 253 6.4 12.9 0.00 0.28 0.00 65 1024.7
20260507113042 -8 0 0.0 0.0 0.00 0.61 0.00 87 1024.4
20260507111557 -5 209 0.0 6.4 0.00 0.28 0.00 63 1024.6
20260507111544 -7 0 0.0 0.0 0.00 0.61 0.00 87 1024.4
20260507110057 -5 239 0.0 8.0 0.00 0.28 0.00 65 1024.4
20260507110037 -7 0 0.0 0.0 0.00 0.61 0.00 86 1024.4
20260507104559 -5 245 0.0 16.1 0.00 0.28 0.00 66 1024.4
20260507104537 -7 0 0.0 0.0 0.00 0.61 0.00 86 1024.6
20260507103052 -5 232 4.8 12.9 0.00 0.28 0.00 64 1024.7
20260507103034 -7 0 0.0 0.0 0.00 0.61 0.00 84 1024.8
20260507101558 -7 0 0.0 0.0 0.00 0.61 0.00 85 1024.8
20260507101550 -5 252 4.8 9.7 0.00 0.28 0.00 66 1024.6
20260507100055 -5 202 0.0 12.9 0.00 0.28 0.00 66 1024.6
20260507100040 -7 0 0.0 0.0 0.00 0.61 0.00 83 1024.8
20260507094551 -6 0 0.0 0.0 0.00 0.61 0.00 82 1024.7
20260507094548 -5 239 1.6 14.5 0.00 0.28 0.00 66 1024.4
20260507093044 -4 236 3.2 14.5 0.00 0.28 0.00 66 1024.2
20260507093037 -6 0 0.0 0.0 0.00 0.61 0.00 83 1024.5
20260507091551 -6 0 0.0 0.0 0.00 0.61 0.00 83 1024.5
20260507091542 -4 221 0.0 11.3 0.00 0.28 0.00 68 1024.1
20260507090049 -4 254 8.0 14.5 0.00 0.28 0.00 67 1024.1
20260507090040 -6 0 0.0 3.2 0.00 0.61 0.00 81 1024.4